Information on these data can be found in provided Readme document
Contact Info: Zachary Fasnacht (zachary.fasnacht@ssaihq.com); Nickolay Krotkov (nickolay.a.krotkov@nasa.gov); Lok Lamsal (lok.lamsal@nasa.gov)

FillValue: -999.
ScaleFactor: 1e15
Units: molecules/cm^2

Date(yyyy-mm-dd),City,Country,LonCenter,LatCenter,BoundingCoordinates,Median,Q1,Q3,Mean,Baseline_Median,Baseline_Q1,Baseline_Q3,Baseline_Mean,NumGoodSamples,NumTotalSamples
2015-01-01,Tashkent,Uzbekistan,69.2401,41.2995,[68.7401 40.7995 69.7401 41.7995],6.378,4.154,8.836,6.502,5.093,2.969,8.846,5.986,141.0,599.0
2015-01-02,Tashkent,Uzbekistan,69.2401,41.2995,[68.7401 40.7995 69.7401 41.7995],6.378,4.154,8.836,6.502,4.907,2.808,8.345,5.771,141.0,597.0
2015-01-03,Tashkent,Uzbekistan,69.2401,41.2995,[68.7401 40.7995 69.7401 41.7995],6.032,3.537,8.48,6.023,4.959,2.609,8.452,5.71,129.0,609.0
2015-01-04,Tashkent,Uzbekistan,69.2401,41.2995,[68.7401 40.7995 69.7401 41.7995],6.032,3.537,8.48,6.023,5.503,2.551,8.592,5.783,129.0,603.0
2015-01-05,Tashkent,Uzbekistan,69.2401,41.2995,[68.7401 40.7995 69.7401 41.7995],5.54,2.556,7.15,5.335,5.218,2.216,8.17,5.575,94.0,595.0
2015-01-06,Tashkent,Uzbekistan,69.2401,41.2995,[68.7401 40.7995 69.7401 41.7995],5.086,1.894,7.113,5.07,4.694,1.811,7.784,5.267,102.0,596.0
2015-01-07,Tashkent,Uzbekistan,69.2401,41.2995,[68.7401 40.7995 69.7401 41.7995],4.532,1.544,6.397,4.315,4.595,1.739,7.827,5.187,83.0,596.0
2015-01-08,Tashkent,Uzbekistan,69.2401,41.2995,[68.7401 40.7995 69.7401 41.7995],4.154,1.41,6.096,3.898,4.096,1.669,7.464,4.802,115.0,597.0
2015-01-09,Tashkent,Uzbekistan,69.2401,41.2995,[68.7401 40.7995 69.7401 41.7995],4.157,1.41,6.096,3.911,4.044,1.601,6.998,4.706,118.0,588.0
2015-01-10,Tashkent,Uzbekistan,69.2401,41.2995,[68.7401 40.7995 69.7401 41.7995],4.157,1.41,6.096,3.911,4.353,1.99,7.253,4.94,118.0,554.0
2015-01-11,Tashkent,Uzbekistan,69.2401,41.2995,[68.7401 40.7995 69.7401 41.7995],4.157,1.41,6.096,3.963,4.25,1.881,7.162,4.987,120.0,558.0
2015-01-12,Tashkent,Uzbekistan,69.2401,41.2995,[68.7401 40.7995 69.7401 41.7995],4.157,1.41,6.096,3.963,4.271,2.065,7.566,5.075,120.0,553.0
2015-01-13,Tashkent,Uzbekistan,69.2401,41.2995,[68.7401 40.7995 69.7401 41.7995],4.157,1.41,6.096,3.963,4.528,2.033,7.507,5.0,120.0,550.0
2015-01-14,Tashkent,Uzbekistan,69.2401,41.2995,[68.7401 40.7995 69.7401 41.7995],3.587,0.835,5.634,3.526,4.569,2.022,7.424,5.104,83.0,548.0
2015-01-15,Tashkent,Uzbekistan,69.2401,41.2995,[68.7401 40.7995 69.7401 41.7995],3.342,0.845,5.634,3.435,4.318,1.901,6.992,4.912,88.0,549.0
2015-01-16,Tashkent,Uzbekistan,69.2401,41.2995,[68.7401 40.7995 69.7401 41.7995],1.428,0.601,4.184,2.399,4.657,2.417,7.423,5.32,58.0,550.0
2015-01-17,Tashkent,Uzbekistan,69.2401,41.2995,[68.7401 40.7995 69.7401 41.7995],1.428,0.601,4.184,2.399,4.714,2.418,7.834,5.492,58.0,555.0
2015-01-18,Tashkent,Uzbekistan,69.2401,41.2995,[68.7401 40.7995 69.7401 41.7995],1.731,0.932,4.199,2.759,4.725,2.467,7.582,5.396,58.0,550.0
2015-01-19,Tashkent,Uzbekistan,69.2401,41.2995,[68.7401 40.7995 69.7401 41.7995],1.564,1.234,3.342,2.437,4.784,2.511,7.418,5.42,68.0,559.0
2015-01-20,Tashkent,Uzbekistan,69.2401,41.2995,[68.7401 40.7995 69.7401 41.7995],1.564,1.234,3.342,2.437,4.807,2.416,7.25,5.327,68.0,552.0
2015-01-21,Tashkent,Uzbekistan,69.2401,41.2995,[68.7401 40.7995 69.7401 41.7995],1.576,1.234,3.587,2.529,5.0,2.804,7.318,5.55,60.0,546.0
2015-01-22,Tashkent,Uzbekistan,69.2401,41.2995,[68.7401 40.7995 69.7401 41.7995],1.815,1.234,4.706,2.894,4.875,2.734,7.365,5.474,75.0,547.0
2015-01-23,Tashkent,Uzbekistan,69.2401,41.2995,[68.7401 40.7995 69.7401 41.7995],1.755,1.335,3.666,2.845,5.304,3.208,7.9,5.94,41.0,550.0
2015-01-24,Tashkent,Uzbekistan,69.2401,41.2995,[68.7401 40.7995 69.7401 41.7995],2.041,1.406,5.198,3.087,5.246,3.183,7.967,5.89,54.0,551.0
2015-01-25,Tashkent,Uzbekistan,69.2401,41.2995,[68.7401 40.7995 69.7401 41.7995],2.041,1.406,5.198,3.087,5.326,3.29,7.839,5.947,54.0,592.0
2015-01-26,Tashkent,Uzbekistan,69.2401,41.2995,[68.7401 40.7995 69.7401 41.7995],1.815,1.066,4.706,2.742,5.292,3.147,7.737,5.835,59.0,607.0
2015-01-27,Tashkent,Uzbekistan,69.2401,41.2995,[68.7401 40.7995 69.7401 41.7995],2.041,1.234,5.282,3.184,5.206,3.14,7.537,5.734,76.0,608.0
2015-01-28,Tashkent,Uzbekistan,69.2401,41.2995,[68.7401 40.7995 69.7401 41.7995],2.041,1.234,5.282,3.184,5.245,3.097,7.697,5.766,76.0,604.0
2015-01-29,Tashkent,Uzbekistan,69.2401,41.2995,[68.7401 40.7995 69.7401 41.7995],3.747,1.427,6.368,4.025,5.225,2.976,7.902,5.737,106.0,601.0
2015-01-30,Tashkent,Uzbekistan,69.2401,41.2995,[68.7401 40.7995 69.7401 41.7995],3.819,1.564,6.368,4.127,4.843,2.303,7.608,5.452,101.0,599.0
2015-01-31,Tashkent,Uzbekistan,69.2401,41.2995,[68.7401 40.7995 69.7401 41.7995],3.819,1.564,6.368,4.12,4.535,1.984,7.191,5.023,102.0,600.0
2015-02-01,Tashkent,Uzbekistan,69.2401,41.2995,[68.7401 40.7995 69.7401 41.7995],3.819,1.564,6.368,4.12,4.487,2.016,6.862,4.875,102.0,603.0
2015-02-02,Tashkent,Uzbekistan,69.2401,41.2995,[68.7401 40.7995 69.7401 41.7995],3.899,1.564,6.368,4.169,4.445,1.94,6.853,4.913,96.0,609.0
2015-02-03,Tashkent,Uzbekistan,69.2401,41.2995,[68.7401 40.7995 69.7401 41.7995],4.948,2.501,6.974,4.803,4.38,2.053,6.714,4.748,86.0,606.0
2015-02-04,Tashkent,Uzbekistan,69.2401,41.2995,[68.7401 40.7995 69.7401 41.7995],4.948,2.501,6.974,4.803,4.562,2.105,6.934,5.145,86.0,616.0
2015-02-05,Tashkent,Uzbekistan,69.2401,41.2995,[68.7401 40.7995 69.7401 41.7995],4.948,2.501,6.974,4.803,4.548,1.963,7.131,5.102,86.0,607.0
2015-02-06,Tashkent,Uzbekistan,69.2401,41.2995,[68.7401 40.7995 69.7401 41.7995],5.395,2.154,7.155,4.887,4.66,1.909,7.172,5.204,71.0,599.0
2015-02-07,Tashkent,Uzbekistan,69.2401,41.2995,[68.7401 40.7995 69.7401 41.7995],4.589,2.809,6.487,4.813,3.663,1.583,6.302,4.62,78.0,598.0
2015-02-08,Tashkent,Uzbekistan,69.2401,41.2995,[68.7401 40.7995 69.7401 41.7995],4.738,3.553,7.489,5.157,3.757,1.666,6.687,4.78,62.0,600.0
2015-02-09,Tashkent,Uzbekistan,69.2401,41.2995,[68.7401 40.7995 69.7401 41.7995],4.738,3.553,7.489,5.157,3.924,1.626,7.179,4.921,62.0,602.0
2015-02-10,Tashkent,Uzbekistan,69.2401,41.2995,[68.7401 40.7995 69.7401 41.7995],5.422,3.845,7.627,5.667,4.023,1.686,7.258,5.098,56.0,594.0
2015-02-11,Tashkent,Uzbekistan,69.2401,41.2995,[68.7401 40.7995 69.7401 41.7995],5.422,3.92,7.489,5.541,3.908,1.561,7.371,5.183,39.0,560.0
2015-02-12,Tashkent,Uzbekistan,69.2401,41.2995,[68.7401 40.7995 69.7401 41.7995],5.422,3.92,7.627,6.157,3.803,1.408,7.139,5.051,58.0,559.0
2015-02-13,Tashkent,Uzbekistan,69.2401,41.2995,[68.7401 40.7995 69.7401 41.7995],4.589,3.275,7.125,6.526,3.646,1.17,7.259,5.02,28.0,553.0
2015-02-14,Tashkent,Uzbekistan,69.2401,41.2995,[68.7401 40.7995 69.7401 41.7995],4.589,3.275,7.125,6.526,4.14,1.665,7.862,5.547,28.0,549.0
2015-02-15,Tashkent,Uzbekistan,69.2401,41.2995,[68.7401 40.7995 69.7401 41.7995],4.589,4.084,7.125,6.597,4.069,1.737,7.691,5.479,27.0,546.0
2015-02-16,Tashkent,Uzbekistan,69.2401,41.2995,[68.7401 40.7995 69.7401 41.7995],4.589,4.084,7.125,6.597,4.575,1.992,7.33,5.715,27.0,545.0
2015-02-17,Tashkent,Uzbekistan,69.2401,41.2995,[68.7401 40.7995 69.7401 41.7995],4.589,4.084,7.125,6.597,4.624,1.945,7.552,5.823,27.0,546.0
2015-02-18,Tashkent,Uzbekistan,69.2401,41.2995,[68.7401 40.7995 69.7401 41.7995],4.589,4.084,7.125,6.597,4.706,2.143,7.547,5.763,27.0,553.0
2015-02-19,Tashkent,Uzbekistan,69.2401,41.2995,[68.7401 40.7995 69.7401 41.7995],4.589,4.084,7.125,6.597,4.62,2.281,6.712,5.407,27.0,552.0
2015-02-20,Tashkent,Uzbekistan,69.2401,41.2995,[68.7401 40.7995 69.7401 41.7995],4.37,3.002,6.757,5.468,4.693,2.325,6.577,5.378,29.0,564.0
2015-02-21,Tashkent,Uzbekistan,69.2401,41.2995,[68.7401 40.7995 69.7401 41.7995],4.37,2.716,6.123,5.564,4.803,2.386,7.017,5.394,50.0,558.0
2015-02-22,Tashkent,Uzbekistan,69.2401,41.2995,[68.7401 40.7995 69.7401 41.7995],3.793,1.298,7.958,6.01,4.865,2.732,7.277,5.655,43.0,551.0
2015-02-23,Tashkent,Uzbekistan,69.2401,41.2995,[68.7401 40.7995 69.7401 41.7995],3.793,1.298,7.958,6.01,4.753,2.472,7.228,5.498,43.0,552.0
2015-02-24,Tashkent,Uzbekistan,69.2401,41.2995,[68.7401 40.7995 69.7401 41.7995],3.793,1.298,7.958,6.01,4.553,2.24,7.037,5.38,43.0,552.0
2015-02-25,Tashkent,Uzbekistan,69.2401,41.2995,[68.7401 40.7995 69.7401 41.7995],3.853,2.18,6.154,5.094,4.443,2.262,6.863,5.258,74.0,553.0
2015-02-26,Tashkent,Uzbekistan,69.2401,41.2995,[68.7401 40.7995 69.7401 41.7995],3.853,2.18,6.154,5.109,4.339,2.214,6.599,5.022,76.0,594.0
2015-02-27,Tashkent,Uzbekistan,69.2401,41.2995,[68.7401 40.7995 69.7401 41.7995],3.408,1.389,5.294,4.318,4.351,2.345,6.442,5.044,61.0,615.0
2015-02-28,Tashkent,Uzbekistan,69.2401,41.2995,[68.7401 40.7995 69.7401 41.7995],3.408,1.298,5.294,4.27,4.393,2.371,6.384,5.001,64.0,617.0
2015-03-01,Tashkent,Uzbekistan,69.2401,41.2995,[68.7401 40.7995 69.7401 41.7995],3.408,1.298,5.294,4.27,4.26,2.317,6.181,4.838,64.0,614.0
2015-03-02,Tashkent,Uzbekistan,69.2401,41.2995,[68.7401 40.7995 69.7401 41.7995],3.408,1.298,5.294,4.27,4.262,2.363,6.196,4.849,64.0,610.0
2015-03-03,Tashkent,Uzbekistan,69.2401,41.2995,[68.7401 40.7995 69.7401 41.7995],3.408,1.298,5.294,4.27,4.158,2.132,6.036,4.669,64.0,606.0
2015-03-04,Tashkent,Uzbekistan,69.2401,41.2995,[68.7401 40.7995 69.7401 41.7995],2.852,1.389,5.019,3.662,3.838,1.934,5.895,4.347,92.0,607.0
2015-03-05,Tashkent,Uzbekistan,69.2401,41.2995,[68.7401 40.7995 69.7401 41.7995],2.852,1.389,5.019,3.662,3.774,1.918,5.997,4.39,92.0,605.0
2015-03-06,Tashkent,Uzbekistan,69.2401,41.2995,[68.7401 40.7995 69.7401 41.7995],2.978,1.337,5.294,3.858,3.452,1.705,5.836,4.235,125.0,609.0
2015-03-07,Tashkent,Uzbekistan,69.2401,41.2995,[68.7401 40.7995 69.7401 41.7995],3.286,1.525,5.772,4.369,3.45,1.68,5.747,4.22,138.0,605.0
2015-03-08,Tashkent,Uzbekistan,69.2401,41.2995,[68.7401 40.7995 69.7401 41.7995],3.205,1.525,5.772,4.208,3.194,1.615,5.456,3.983,118.0,612.0
2015-03-09,Tashkent,Uzbekistan,69.2401,41.2995,[68.7401 40.7995 69.7401 41.7995],3.286,1.525,6.154,4.353,3.22,1.633,5.34,3.916,142.0,606.0
2015-03-10,Tashkent,Uzbekistan,69.2401,41.2995,[68.7401 40.7995 69.7401 41.7995],3.286,1.525,6.154,4.353,3.297,1.769,5.479,3.981,142.0,599.0
2015-03-11,Tashkent,Uzbekistan,69.2401,41.2995,[68.7401 40.7995 69.7401 41.7995],3.828,1.777,6.584,4.71,3.378,1.786,5.521,4.017,181.0,599.0
2015-03-12,Tashkent,Uzbekistan,69.2401,41.2995,[68.7401 40.7995 69.7401 41.7995],3.393,1.645,6.958,4.785,3.462,1.852,5.626,4.114,149.0,600.0
2015-03-13,Tashkent,Uzbekistan,69.2401,41.2995,[68.7401 40.7995 69.7401 41.7995],3.393,1.645,6.958,4.776,3.488,1.857,5.596,4.137,147.0,602.0
2015-03-14,Tashkent,Uzbekistan,69.2401,41.2995,[68.7401 40.7995 69.7401 41.7995],3.844,1.72,6.961,4.852,3.611,2.128,5.503,4.161,146.0,589.0
2015-03-15,Tashkent,Uzbekistan,69.2401,41.2995,[68.7401 40.7995 69.7401 41.7995],3.844,1.72,6.961,4.879,3.548,1.898,5.308,4.076,143.0,555.0
2015-03-16,Tashkent,Uzbekistan,69.2401,41.2995,[68.7401 40.7995 69.7401 41.7995],3.844,1.72,6.961,4.871,3.576,1.776,5.442,4.033,145.0,555.0
2015-03-17,Tashkent,Uzbekistan,69.2401,41.2995,[68.7401 40.7995 69.7401 41.7995],3.844,1.72,6.961,4.871,3.631,1.881,5.366,4.043,145.0,547.0
2015-03-18,Tashkent,Uzbekistan,69.2401,41.2995,[68.7401 40.7995 69.7401 41.7995],3.844,1.72,6.961,4.871,3.722,2.015,5.485,4.16,145.0,543.0
2015-03-19,Tashkent,Uzbekistan,69.2401,41.2995,[68.7401 40.7995 69.7401 41.7995],5.163,2.085,7.439,5.576,4.134,2.221,5.628,4.38,117.0,539.0
2015-03-20,Tashkent,Uzbekistan,69.2401,41.2995,[68.7401 40.7995 69.7401 41.7995],5.163,2.085,7.439,5.576,4.162,2.21,5.639,4.335,117.0,542.0
2015-03-21,Tashkent,Uzbekistan,69.2401,41.2995,[68.7401 40.7995 69.7401 41.7995],5.375,2.641,7.94,6.298,4.232,2.343,5.625,4.503,84.0,542.0
2015-03-22,Tashkent,Uzbekistan,69.2401,41.2995,[68.7401 40.7995 69.7401 41.7995],4.878,2.239,7.121,5.564,4.151,2.285,5.485,4.375,73.0,548.0
2015-03-23,Tashkent,Uzbekistan,69.2401,41.2995,[68.7401 40.7995 69.7401 41.7995],4.752,2.168,6.984,5.273,4.055,2.183,5.338,4.283,93.0,548.0
2015-03-24,Tashkent,Uzbekistan,69.2401,41.2995,[68.7401 40.7995 69.7401 41.7995],4.752,2.239,6.662,5.167,4.212,2.333,5.617,4.422,70.0,557.0
2015-03-25,Tashkent,Uzbekistan,69.2401,41.2995,[68.7401 40.7995 69.7401 41.7995],4.752,2.239,6.662,5.167,4.058,2.328,5.415,4.294,70.0,549.0
2015-03-26,Tashkent,Uzbekistan,69.2401,41.2995,[68.7401 40.7995 69.7401 41.7995],1.699,0.797,5.46,2.878,3.868,2.377,5.23,4.17,31.0,544.0
2015-03-27,Tashkent,Uzbekistan,69.2401,41.2995,[68.7401 40.7995 69.7401 41.7995],3.22,2.174,4.899,3.451,3.743,2.415,5.042,3.993,55.0,543.0
2015-03-28,Tashkent,Uzbekistan,69.2401,41.2995,[68.7401 40.7995 69.7401 41.7995],3.22,2.174,4.899,3.451,3.774,2.446,5.296,4.132,55.0,542.0
2015-03-29,Tashkent,Uzbekistan,69.2401,41.2995,[68.7401 40.7995 69.7401 41.7995],3.025,1.412,4.899,3.08,3.308,1.831,5.397,3.811,87.0,544.0
2015-03-30,Tashkent,Uzbekistan,69.2401,41.2995,[68.7401 40.7995 69.7401 41.7995],3.025,1.412,4.899,3.08,3.358,1.903,5.45,3.857,87.0,584.0
2015-03-31,Tashkent,Uzbekistan,69.2401,41.2995,[68.7401 40.7995 69.7401 41.7995],2.629,1.155,3.898,2.644,3.408,1.898,5.081,3.801,101.0,599.0
2015-04-01,Tashkent,Uzbekistan,69.2401,41.2995,[68.7401 40.7995 69.7401 41.7995],2.637,1.186,4.498,2.777,3.104,1.765,5.169,3.697,129.0,603.0
2015-04-02,Tashkent,Uzbekistan,69.2401,41.2995,[68.7401 40.7995 69.7401 41.7995],2.637,1.186,4.498,2.777,3.149,1.769,5.191,3.674,129.0,600.0
2015-04-03,Tashkent,Uzbekistan,69.2401,41.2995,[68.7401 40.7995 69.7401 41.7995],2.711,1.289,4.507,2.935,3.012,1.73,5.032,3.583,159.0,599.0
2015-04-04,Tashkent,Uzbekistan,69.2401,41.2995,[68.7401 40.7995 69.7401 41.7995],2.711,1.289,4.507,2.935,2.977,1.74,4.983,3.559,159.0,596.0
2015-04-05,Tashkent,Uzbekistan,69.2401,41.2995,[68.7401 40.7995 69.7401 41.7995],2.688,1.289,4.498,2.92,2.888,1.651,4.807,3.392,196.0,600.0
2015-04-06,Tashkent,Uzbekistan,69.2401,41.2995,[68.7401 40.7995 69.7401 41.7995],2.688,1.289,4.507,2.938,2.929,1.671,4.792,3.424,192.0,602.0
2015-04-07,Tashkent,Uzbekistan,69.2401,41.2995,[68.7401 40.7995 69.7401 41.7995],2.688,1.33,4.315,2.919,2.998,1.748,4.66,3.479,171.0,609.0
2015-04-08,Tashkent,Uzbekistan,69.2401,41.2995,[68.7401 40.7995 69.7401 41.7995],2.688,1.394,4.498,2.925,2.877,1.718,4.392,3.275,170.0,607.0
2015-04-09,Tashkent,Uzbekistan,69.2401,41.2995,[68.7401 40.7995 69.7401 41.7995],2.68,1.363,4.145,2.861,2.935,1.725,4.307,3.292,178.0,617.0
2015-04-10,Tashkent,Uzbekistan,69.2401,41.2995,[68.7401 40.7995 69.7401 41.7995],2.688,1.363,4.315,2.912,2.941,1.685,4.314,3.241,189.0,611.0
2015-04-11,Tashkent,Uzbekistan,69.2401,41.2995,[68.7401 40.7995 69.7401 41.7995],2.354,1.236,4.145,2.801,2.852,1.649,4.281,3.211,165.0,604.0
2015-04-12,Tashkent,Uzbekistan,69.2401,41.2995,[68.7401 40.7995 69.7401 41.7995],2.466,1.336,4.275,2.877,2.841,1.704,4.2,3.137,192.0,603.0
2015-04-13,Tashkent,Uzbekistan,69.2401,41.2995,[68.7401 40.7995 69.7401 41.7995],2.428,1.363,4.147,2.906,3.116,1.789,4.305,3.35,157.0,607.0
2015-04-14,Tashkent,Uzbekistan,69.2401,41.2995,[68.7401 40.7995 69.7401 41.7995],2.698,1.562,4.249,2.998,3.131,1.766,4.321,3.311,189.0,610.0
2015-04-15,Tashkent,Uzbekistan,69.2401,41.2995,[68.7401 40.7995 69.7401 41.7995],2.978,1.753,4.334,3.22,3.07,1.808,4.279,3.334,176.0,602.0
2015-04-16,Tashkent,Uzbekistan,69.2401,41.2995,[68.7401 40.7995 69.7401 41.7995],2.943,1.805,4.315,3.179,3.012,1.852,4.262,3.324,148.0,600.0
2015-04-17,Tashkent,Uzbekistan,69.2401,41.2995,[68.7401 40.7995 69.7401 41.7995],2.978,1.89,4.334,3.246,2.918,1.741,4.207,3.246,175.0,602.0
2015-04-18,Tashkent,Uzbekistan,69.2401,41.2995,[68.7401 40.7995 69.7401 41.7995],2.947,1.944,4.249,3.207,2.905,1.736,4.166,3.234,145.0,594.0
2015-04-19,Tashkent,Uzbekistan,69.2401,41.2995,[68.7401 40.7995 69.7401 41.7995],2.947,1.944,4.249,3.207,2.806,1.762,4.063,3.131,145.0,590.0
2015-04-20,Tashkent,Uzbekistan,69.2401,41.2995,[68.7401 40.7995 69.7401 41.7995],3.141,2.059,4.334,3.341,2.803,1.783,4.055,3.143,108.0,584.0
2015-04-21,Tashkent,Uzbekistan,69.2401,41.2995,[68.7401 40.7995 69.7401 41.7995],3.15,2.059,4.377,3.444,2.775,1.773,4.012,3.147,146.0,583.0
2015-04-22,Tashkent,Uzbekistan,69.2401,41.2995,[68.7401 40.7995 69.7401 41.7995],3.15,2.059,4.377,3.444,2.799,1.808,4.059,3.16,146.0,583.0
2015-04-23,Tashkent,Uzbekistan,69.2401,41.2995,[68.7401 40.7995 69.7401 41.7995],3.167,2.19,4.367,3.435,2.826,1.857,4.132,3.185,166.0,587.0
2015-04-24,Tashkent,Uzbekistan,69.2401,41.2995,[68.7401 40.7995 69.7401 41.7995],3.201,2.296,4.38,3.513,2.809,1.904,3.964,3.174,171.0,586.0
2015-04-25,Tashkent,Uzbekistan,69.2401,41.2995,[68.7401 40.7995 69.7401 41.7995],3.091,2.187,4.377,3.427,2.814,1.89,3.988,3.206,181.0,594.0
2015-04-26,Tashkent,Uzbekistan,69.2401,41.2995,[68.7401 40.7995 69.7401 41.7995],2.978,2.058,4.334,3.355,2.803,1.904,4.05,3.22,204.0,588.0
2015-04-27,Tashkent,Uzbekistan,69.2401,41.2995,[68.7401 40.7995 69.7401 41.7995],2.921,2.075,4.334,3.341,2.762,1.902,3.93,3.203,180.0,583.0
2015-04-28,Tashkent,Uzbekistan,69.2401,41.2995,[68.7401 40.7995 69.7401 41.7995],2.74,1.961,4.015,3.138,2.706,1.822,3.84,3.057,218.0,580.0
2015-04-29,Tashkent,Uzbekistan,69.2401,41.2995,[68.7401 40.7995 69.7401 41.7995],2.513,1.86,3.93,3.077,2.628,1.795,3.809,3.04,186.0,581.0
2015-04-30,Tashkent,Uzbekistan,69.2401,41.2995,[68.7401 40.7995 69.7401 41.7995],2.459,1.925,3.812,3.021,2.632,1.805,3.779,3.025,202.0,586.0
2015-05-01,Tashkent,Uzbekistan,69.2401,41.2995,[68.7401 40.7995 69.7401 41.7995],2.559,1.927,3.896,3.105,2.686,1.844,3.888,3.098,229.0,595.0
2015-05-02,Tashkent,Uzbekistan,69.2401,41.2995,[68.7401 40.7995 69.7401 41.7995],2.573,1.975,3.628,2.994,2.69,1.899,3.822,3.079,236.0,610.0
2015-05-03,Tashkent,Uzbekistan,69.2401,41.2995,[68.7401 40.7995 69.7401 41.7995],2.602,1.975,3.672,3.023,2.7,1.927,3.822,3.082,260.0,612.0
2015-05-04,Tashkent,Uzbekistan,69.2401,41.2995,[68.7401 40.7995 69.7401 41.7995],2.576,1.969,3.672,3.017,2.759,1.973,3.851,3.142,262.0,607.0
2015-05-05,Tashkent,Uzbekistan,69.2401,41.2995,[68.7401 40.7995 69.7401 41.7995],2.697,2.001,3.672,3.081,2.786,1.952,3.862,3.101,286.0,605.0
2015-05-06,Tashkent,Uzbekistan,69.2401,41.2995,[68.7401 40.7995 69.7401 41.7995],2.624,2.015,3.473,2.966,2.75,1.927,3.801,3.064,248.0,601.0
2015-05-07,Tashkent,Uzbekistan,69.2401,41.2995,[68.7401 40.7995 69.7401 41.7995],2.624,2.001,3.512,2.949,2.731,1.948,3.749,3.036,277.0,602.0
2015-05-08,Tashkent,Uzbekistan,69.2401,41.2995,[68.7401 40.7995 69.7401 41.7995],2.512,1.93,3.352,2.892,2.734,1.98,3.705,3.045,257.0,605.0
2015-05-09,Tashkent,Uzbekistan,69.2401,41.2995,[68.7401 40.7995 69.7401 41.7995],2.513,1.93,3.36,2.91,2.724,1.971,3.753,3.052,244.0,608.0
2015-05-10,Tashkent,Uzbekistan,69.2401,41.2995,[68.7401 40.7995 69.7401 41.7995],2.679,2.001,3.42,2.911,2.762,1.99,3.761,3.035,251.0,607.0
2015-05-11,Tashkent,Uzbekistan,69.2401,41.2995,[68.7401 40.7995 69.7401 41.7995],2.7,2.015,3.515,2.952,2.769,1.979,3.735,3.021,258.0,618.0
2015-05-12,Tashkent,Uzbekistan,69.2401,41.2995,[68.7401 40.7995 69.7401 41.7995],2.724,2.013,3.574,2.958,2.775,1.968,3.777,3.017,278.0,614.0
2015-05-13,Tashkent,Uzbekistan,69.2401,41.2995,[68.7401 40.7995 69.7401 41.7995],2.87,2.073,3.672,3.078,2.755,2.01,3.805,3.056,245.0,608.0
2015-05-14,Tashkent,Uzbekistan,69.2401,41.2995,[68.7401 40.7995 69.7401 41.7995],2.78,2.052,3.654,3.051,2.774,2.042,3.76,3.037,280.0,609.0
2015-05-15,Tashkent,Uzbekistan,69.2401,41.2995,[68.7401 40.7995 69.7401 41.7995],2.813,2.052,3.702,3.099,2.786,2.029,3.826,3.056,261.0,608.0
2015-05-16,Tashkent,Uzbekistan,69.2401,41.2995,[68.7401 40.7995 69.7401 41.7995],2.781,2.055,3.712,3.05,2.772,2.057,3.775,3.034,250.0,609.0
2015-05-17,Tashkent,Uzbekistan,69.2401,41.2995,[68.7401 40.7995 69.7401 41.7995],2.813,2.045,3.72,3.098,2.827,2.068,3.821,3.081,216.0,599.0
2015-05-18,Tashkent,Uzbekistan,69.2401,41.2995,[68.7401 40.7995 69.7401 41.7995],2.781,2.052,3.716,3.069,2.821,2.057,3.869,3.101,192.0,598.0
2015-05-19,Tashkent,Uzbekistan,69.2401,41.2995,[68.7401 40.7995 69.7401 41.7995],2.813,2.031,3.716,3.07,2.896,2.114,3.872,3.132,216.0,599.0
2015-05-20,Tashkent,Uzbekistan,69.2401,41.2995,[68.7401 40.7995 69.7401 41.7995],2.759,2.013,3.716,3.001,2.894,2.133,3.918,3.178,209.0,592.0
2015-05-21,Tashkent,Uzbekistan,69.2401,41.2995,[68.7401 40.7995 69.7401 41.7995],2.56,1.899,3.696,2.931,2.867,2.127,3.934,3.172,241.0,590.0
2015-05-22,Tashkent,Uzbekistan,69.2401,41.2995,[68.7401 40.7995 69.7401 41.7995],2.518,1.896,3.714,2.948,2.93,2.145,3.998,3.208,212.0,585.0
2015-05-23,Tashkent,Uzbekistan,69.2401,41.2995,[68.7401 40.7995 69.7401 41.7995],2.683,2.028,3.789,3.089,2.938,2.16,3.986,3.257,238.0,585.0
2015-05-24,Tashkent,Uzbekistan,69.2401,41.2995,[68.7401 40.7995 69.7401 41.7995],2.683,2.028,3.789,3.089,2.975,2.193,3.994,3.278,238.0,587.0
2015-05-25,Tashkent,Uzbekistan,69.2401,41.2995,[68.7401 40.7995 69.7401 41.7995],2.898,2.182,3.85,3.19,2.97,2.237,4.005,3.3,247.0,589.0
2015-05-26,Tashkent,Uzbekistan,69.2401,41.2995,[68.7401 40.7995 69.7401 41.7995],2.894,2.255,3.924,3.246,2.947,2.233,3.973,3.285,247.0,586.0
2015-05-27,Tashkent,Uzbekistan,69.2401,41.2995,[68.7401 40.7995 69.7401 41.7995],3.027,2.32,3.894,3.277,2.964,2.238,3.948,3.276,254.0,597.0
2015-05-28,Tashkent,Uzbekistan,69.2401,41.2995,[68.7401 40.7995 69.7401 41.7995],3.003,2.32,3.894,3.292,2.962,2.217,3.907,3.277,271.0,590.0
2015-05-29,Tashkent,Uzbekistan,69.2401,41.2995,[68.7401 40.7995 69.7401 41.7995],3.105,2.33,3.924,3.352,2.982,2.234,3.917,3.31,240.0,582.0
2015-05-30,Tashkent,Uzbekistan,69.2401,41.2995,[68.7401 40.7995 69.7401 41.7995],2.868,2.046,3.848,3.146,2.954,2.187,3.867,3.26,280.0,582.0
2015-05-31,Tashkent,Uzbekistan,69.2401,41.2995,[68.7401 40.7995 69.7401 41.7995],2.861,1.945,3.894,3.132,2.888,2.117,3.861,3.199,264.0,584.0
2015-06-01,Tashkent,Uzbekistan,69.2401,41.2995,[68.7401 40.7995 69.7401 41.7995],2.768,1.908,3.674,3.027,2.869,2.089,3.781,3.149,295.0,586.0
2015-06-02,Tashkent,Uzbekistan,69.2401,41.2995,[68.7401 40.7995 69.7401 41.7995],2.746,1.908,3.674,3.014,2.893,2.075,3.778,3.14,324.0,595.0
2015-06-03,Tashkent,Uzbekistan,69.2401,41.2995,[68.7401 40.7995 69.7401 41.7995],2.844,2.007,3.803,3.057,2.896,2.051,3.789,3.095,332.0,614.0
2015-06-04,Tashkent,Uzbekistan,69.2401,41.2995,[68.7401 40.7995 69.7401 41.7995],2.842,1.972,3.741,3.042,2.846,2.054,3.717,3.048,342.0,618.0
2015-06-05,Tashkent,Uzbekistan,69.2401,41.2995,[68.7401 40.7995 69.7401 41.7995],2.905,2.046,3.848,3.099,2.907,2.116,3.767,3.112,327.0,630.0
2015-06-06,Tashkent,Uzbekistan,69.2401,41.2995,[68.7401 40.7995 69.7401 41.7995],2.82,2.02,3.741,3.015,2.871,2.081,3.744,3.073,355.0,626.0
2015-06-07,Tashkent,Uzbekistan,69.2401,41.2995,[68.7401 40.7995 69.7401 41.7995],2.71,1.953,3.53,2.915,2.827,2.051,3.671,3.019,329.0,622.0
2015-06-08,Tashkent,Uzbekistan,69.2401,41.2995,[68.7401 40.7995 69.7401 41.7995],2.71,1.963,3.53,2.925,2.803,2.041,3.645,2.982,367.0,623.0
2015-06-09,Tashkent,Uzbekistan,69.2401,41.2995,[68.7401 40.7995 69.7401 41.7995],2.527,1.896,3.477,2.815,2.77,2.037,3.61,2.956,330.0,625.0
2015-06-10,Tashkent,Uzbekistan,69.2401,41.2995,[68.7401 40.7995 69.7401 41.7995],2.552,1.908,3.502,2.814,2.812,2.089,3.673,3.002,336.0,629.0
2015-06-11,Tashkent,Uzbekistan,69.2401,41.2995,[68.7401 40.7995 69.7401 41.7995],2.507,1.821,3.502,2.762,2.825,2.087,3.695,2.996,336.0,624.0
2015-06-12,Tashkent,Uzbekistan,69.2401,41.2995,[68.7401 40.7995 69.7401 41.7995],2.42,1.808,3.485,2.689,2.803,2.082,3.697,2.969,342.0,633.0
2015-06-13,Tashkent,Uzbekistan,69.2401,41.2995,[68.7401 40.7995 69.7401 41.7995],2.422,1.807,3.502,2.71,2.786,2.079,3.71,2.964,360.0,627.0
2015-06-14,Tashkent,Uzbekistan,69.2401,41.2995,[68.7401 40.7995 69.7401 41.7995],2.649,1.925,3.537,2.811,2.791,2.068,3.678,2.98,323.0,620.0
2015-06-15,Tashkent,Uzbekistan,69.2401,41.2995,[68.7401 40.7995 69.7401 41.7995],2.639,1.929,3.502,2.788,2.775,2.062,3.628,2.941,362.0,621.0
2015-06-16,Tashkent,Uzbekistan,69.2401,41.2995,[68.7401 40.7995 69.7401 41.7995],2.61,1.951,3.555,2.841,2.796,2.094,3.668,2.978,331.0,625.0
2015-06-17,Tashkent,Uzbekistan,69.2401,41.2995,[68.7401 40.7995 69.7401 41.7995],2.712,2.043,3.686,2.928,2.797,2.128,3.76,3.113,323.0,629.0